TimeCST,TemperatureF,Dew PointF,Humidity,Sea Level PressureIn,VisibilityMPH,Wind Direction,Wind SpeedMPH,Gust SpeedMPH,PrecipitationIn,Events,Conditions,WindDirDegrees,DateUTC
12:55 AM,35.6,34.9,97,30.16,10.0,Calm,Calm,-,N/A,,Clear,0,2013-01-21 06:55:00
1:55 AM,34.0,33.3,97,30.16,10.0,Calm,Calm,-,N/A,,Clear,0,2013-01-21 07:55:00
2:55 AM,34.9,34.3,98,30.16,10.0,Calm,Calm,-,N/A,,Clear,0,2013-01-21 08:55:00
3:55 AM,32.7,32.0,97,30.16,9.0,Calm,Calm,-,N/A,,Clear,0,2013-01-21 09:55:00
4:55 AM,34.2,33.8,99,30.16,10.0,Calm,Calm,-,N/A,,Clear,0,2013-01-21 10:55:00
5:55 AM,32.2,31.6,98,30.17,10.0,WNW,3.5,-,N/A,,Clear,290,2013-01-21 11:55:00
6:55 AM,32.0,31.5,98,30.20,10.0,WNW,5.8,-,N/A,,Clear,300,2013-01-21 12:55:00
7:55 AM,35.4,34.5,97,30.23,10.0,NNW,9.2,-,N/A,,Clear,330,2013-01-21 13:55:00
8:55 AM,39.0,32.0,76,30.27,10.0,North,-9999.0,-,N/A,,Clear,0,2013-01-21 14:55:00
9:55 AM,43.0,27.9,55,30.28,10.0,North,10.4,-,N/A,,Clear,10,2013-01-21 15:55:00
10:55 AM,45.5,24.6,44,30.29,10.0,NW,10.4,-,N/A,,Clear,320,2013-01-21 16:55:00
11:55 AM,47.5,22.6,38,30.27,10.0,NNW,13.8,-,N/A,,Clear,330,2013-01-21 17:55:00
12:55 PM,49.3,24.3,38,30.25,10.0,NNW,12.7,-,N/A,,Clear,330,2013-01-21 18:55:00
1:55 PM,49.8,23.5,36,30.25,10.0,NNW,12.7,-,N/A,,Clear,330,2013-01-21 19:55:00
2:55 PM,50.0,21.6,33,30.24,10.0,NNW,9.2,-,N/A,,Clear,330,2013-01-21 20:55:00
3:55 PM,50.0,21.4,32,30.25,10.0,NNW,9.2,-,N/A,,Clear,330,2013-01-21 21:55:00
4:55 PM,46.9,21.4,36,30.27,10.0,WNW,11.5,-,N/A,,Clear,300,2013-01-21 22:55:00
5:55 PM,42.1,20.5,42,30.27,10.0,North,8.1,-,N/A,,Clear,350,2013-01-21 23:55:00
6:55 PM,40.5,25.7,56,30.28,10.0,North,6.9,-,N/A,,Clear,360,2013-01-22 00:55:00
7:55 PM,37.9,23.5,56,30.28,10.0,North,8.1,-,N/A,,Clear,360,2013-01-22 01:55:00
8:55 PM,38.1,20.8,50,30.29,10.0,North,9.2,-,N/A,,Clear,10,2013-01-22 02:55:00
9:55 PM,36.1,19.2,50,30.30,10.0,North,6.9,-,N/A,,Clear,10,2013-01-22 03:55:00
10:55 PM,34.2,18.5,53,30.31,10.0,North,3.5,-,N/A,,Clear,350,2013-01-22 04:55:00
11:55 PM,33.1,18.0,54,30.30,10.0,North,4.6,-,N/A,,Clear,360,2013-01-22 05:55:00